SCP
0 0 0 0 0 0 0 0 0 0 0 0 0 0 0 0 0 -0 -0 -0 -0 -0 -0 -0 -0 -0 -0 -0 -0 -0 -0 -0 -0 -0 -0 -0 -0 -0 -0 -0 -0 -0 -0
0 0 0 0 0 0 0 0 0 0 0 0 0 0 0 0 0 0 -0 -0 -0 -0 -0 -0 -0 -0 -0 -0 -0 -0 -0 -0 -0 -0 -0 0 -0 -0 -0 -0 -0 -0 0
0 0 0 0 0 0 0 0 0 0 0 0 0 0 0 0 0 0 0 0 -0 -0 -0 -0 -0 -0 -0 -0 -0 -0 -0 -0 -0 -0 -0 -0 0 -0 -0 -0 -0 -0 -0
0 0 0 0 0 0 0 0 0 0 0 0 0 0 0 0 0 0 0 0 0 0 0 -0 -0 0 0 0 0 0 0 0 0 0 0 -0 0 -0 -0 -0 -0 -0 -0
-0 0 0 0 0 0 0 0 0 0 0 0 0 0 0 0 0 0 0 0 0 0 0 0 0 0 0 0 0 0 0 0 0 0 0 0 0 -0 -0 -0 -0 -0 -0
-0 -0 -0 0 0 0 0 0 0 0 0 0 0 0 0 0 0 0 0 0 0 0 0 0 0 0 0 0 0 0 0 0 0 0 0 -0 0 -0 -0 -0 -0 -0 -0
-0 -0 0 0 0 0 0 -0 -0 0 0 0 0 0 0 0 0 0 0 0 0 0 0 0 0 0 0 0 0 0 0 0 0 0 0 0 0 0 0 0 0 0 0
0 0 0 0 0 0 0 0 -0 0 -0 -0 -0 -0 -0 0 0 0 0 0 0 0 0 0 0 0 0 0 0 0 0 0 0 0 0 0 -0 0 0 0 0 0 0
0 0 0 0 0 0 0 0 0 0 0 0 -0 -0 -0 -0 0 0 0 0 0 0 0 0 0 0 0 0 0 0 0 0 0 0 0 0 0 0 0 0 0 0 0
0 0 0 0 0 0 0 0 0 0 0 0 0 0 0 0 0 0 0 0 0 0 0 0 0 0 0 0 0 0 0 0 0 0 0 0 0 0 0 0 0 0 0
0 0 0 0 0 0 0 0 0 0 0 0 0 0 0 0 0 0 0 0 0 0 0 0 0 0 0 0 0 0 0 0 0 0 0 0 0 0 0 0 0 0 0
0 0 0 0 0 0 0 0 0 0 0 0 0 0 0 0 0 0 0 0 0 0 0 0 0 0 0 0 0 0 0 0 0 0 0 0 0 0 0 0 0 0 0
0 0 0 0 0 0 0 0 0 0 0 0 0 0 0 0 0 0 0 0 0 0 0 0 0 0 0 0 0 0 0 0 0 0 0 0 0 0 0 0 0 0 0
0 0 0 0 0 0 0 0 0 0 0 0 0 0 0 0 0 0 0 0 0 0 0 0 0 0 0 0 0 0 0 0 0 0 0 0 0 0 0 0 0 0 0
0 0 0 0 0 0 0 0 0 0 0 0 0 0 0 0 0 0 0 0 0 0 0 0 0 0 0 0 0 0 0 0 0 0 0 0 0 0 0 -0 0 0 0
0 0 0 0 0 0 0 0 0 0 0 0 0 0 0 0 0 0 0 0 0 0 0 0 0 0 0 0 0 0 0 0 0 0 0 0 0 0 0 0 0 0 0
0 0 0 0 0 0 0 0 0 0 0 0 0 0 0 -0 0 0 0 0 0 0 0 0 0 0 0 0 0 0 0 0 0 0 0 0 0 0 0 0 0 0 0
0 0 0 0 0 0 0 0 0 0 0 0 -0 -0 -0 -0 0 0 0 0 0 0 0 0 0 0 0 0 0 0 0 0 0 0 0 0 0 0 0 0 0 0 0
0 0 0 0 0 0 0 0 0 0 0 -0 -0 -0 -0 -0 0 0 0 0 0 0 0 0 0 0 0 0 0 0 0 0 0 0 0 0 0 0 0 0 0 0 0
0 0 0 0 0 0 0 0 0 0 0 -0 -0 -0 -0 -0 -0 0 0 0 0 0 0 0 0 0 0 0 0 0 0 0 0 0 0 0 0 0 0 0 0 0 0
0 0 0 0 0 0 0 0 0 0 0 0 -0 -0 -0 -0 0 0 0 0 0 0 0 0 0 0 0 0 0 0 0 0 0 0 0 0 0 0 0 0 0 0 0
0 0 0 0 0 0 0 0 0 0 0 0 0 -0 0 0 0 0 0 0 0 0 0 0 0 0 0 0 0 0 0 0 0 0 0 0 0 0 0 0 0 0 0
0 0 0 0 0 0 0 0 0 0 0 0 0 0 0 0 0 0 0 0 0 0 0 0 0 0 0 0 0 0 0 0 0 0 0 0 0 0 0 0 0 0 0
0 0 0 0 0 0 0 0 0 0 0 0 0 0 0 0 0 0 0 0 0 0 0 0 0 0 0 0 0 0 0 0 0 0 0 0 0 0 0 0 0 0 0
0 0 0 0 0 0 0 0 0 0 0 0 0 0 0 0 0 0 0 0 0 0 0 0 0 0 0 0 0 0 0 0 0 0 0 0 0 0 0 0 0 0 0
0 0 0 0 0 0 0 0 0 0 0 0 0 0 0 0 0 0 0 0 0 0 0 0 0 0 0 0 0 0 0 0 0 0 0 0 0 0 0 0 0 0 0
Wind_Speed_500mb
2 10 9 6 1 4 6 9 13 12 13 14 10 11 13 14 12 16 17 18 16 18 21 20 19 20 19 20 20 21 23 25 29 32 33 31 32 33 33 31 29 26 13
6 10 10 7 3 2 6 14 14 14 15 14 15 11 9 9 12 8 10 15 17 15 16 18 18 16 16 16 16 18 20 21 23 28 32 30 27 31 34 33 32 31 22
14 11 10 8 5 1 9 11 12 13 16 19 17 12 11 9 8 9 5 5 9 13 13 11 13 12 11 13 12 12 16 16 18 21 26 25 26 30 32 31 31 29 32
18 15 12 8 8 4 9 8 9 13 16 18 19 16 14 13 9 8 7 8 5 7 8 8 9 8 9 8 8 7 9 13 14 16 19 19 22 25 27 28 28 28 26
23 18 13 9 8 6 11 10 10 11 13 16 17 18 17 15 15 14 13 11 10 4 3 3 3 4 5 4 2 3 6 9 12 14 17 16 18 19 22 21 23 23 21
24 22 18 15 11 7 7 7 9 8 11 12 13 14 15 15 15 15 15 16 15 9 3 1 1 1 2 0 3 5 6 5 9 12 8 16 19 18 21 19 16 18 16
22 19 16 14 12 13 12 13 13 11 9 9 10 11 11 12 14 15 15 15 16 15 11 6 4 5 7 6 9 10 10 9 9 12 13 16 17 20 21 22 12 12 11
16 16 13 12 13 12 12 15 16 15 17 17 15 16 13 10 12 13 13 12 13 13 12 11 10 7 7 11 13 12 16 16 15 14 16 17 17 20 23 25 14 11 5
18 15 12 9 9 8 6 7 8 12 12 14 13 13 15 14 7 8 9 9 10 11 12 9 8 8 5 7 14 18 19 23 23 21 19 18 18 21 22 20 14 11 6
17 14 15 10 6 6 5 2 2 3 2 5 10 12 10 8 6 6 9 9 10 10 10 11 12 10 8 8 11 18 25 26 28 28 26 21 20 19 20 15 15 11 10
16 16 17 14 8 4 6 5 5 4 5 8 11 14 13 14 10 8 11 13 16 14 14 14 15 16 14 13 14 17 20 25 31 31 32 29 27 23 21 15 15 16 12
22 17 15 13 11 9 12 8 5 7 13 14 12 15 17 15 17 15 14 18 20 23 21 21 20 20 19 19 19 19 19 23 27 29 27 30 35 30 24 26 25 17 18
17 14 11 9 9 10 5 8 9 10 11 11 10 9 8 16 18 19 20 19 22 26 26 29 32 29 28 29 28 27 25 24 24 27 31 33 30 34 28 30 28 27 23
15 13 13 10 9 9 7 3 2 4 7 7 9 9 9 11 13 15 16 19 19 24 26 33 33 34 36 38 40 40 37 32 31 31 32 34 33 30 33 33 34 28 27
11 14 12 11 10 11 9 9 9 9 9 15 15 16 17 18 18 18 18 20 23 25 28 29 34 36 36 36 38 42 46 46 42 41 39 38 38 40 38 35 38 39 33
12 12 12 12 13 13 11 10 8 10 13 16 20 24 26 26 25 25 25 25 25 27 29 32 35 35 35 38 39 41 43 47 49 49 49 48 46 44 45 42 43 42 44
14 12 14 12 13 9 7 8 10 13 16 20 25 28 29 29 29 31 33 33 33 33 34 34 33 34 38 39 41 41 43 46 49 52 53 58 56 52 51 50 49 48 50
14 15 16 13 10 8 9 9 10 12 16 24 30 33 34 35 36 36 36 35 36 37 38 39 41 43 42 42 44 43 44 45 47 50 54 61 61 60 57 55 54 53 53
15 14 14 12 8 6 7 8 9 14 21 28 34 37 38 39 40 41 42 42 42 43 43 45 44 46 49 49 50 52 51 51 52 52 51 55 60 66 67 62 59 56 54
20 17 14 12 7 1 5 8 12 18 23 29 36 41 42 44 46 46 46 48 49 49 50 51 52 50 50 53 57 60 61 60 59 55 51 46 49 55 64 72 68 66 61
26 22 17 12 8 6 9 13 15 20 26 30 37 45 46 49 51 55 56 54 55 56 57 58 60 61 60 57 63 67 69 67 54 43 42 44 42 39 44 51 58 70 65
25 22 21 17 13 12 14 19 22 27 31 35 40 48 50 53 58 64 67 63 62 63 62 61 60 61 60 54 55 58 43 59 41 16 12 24 36 37 38 36 39 47 62
32 28 23 20 20 18 21 24 25 31 33 36 42 48 51 56 62 68 70 68 68 68 67 64 60 57 60 57 49 37 24 20 51 67 50 56 61 61 58 52 48 46 43
33 29 27 26 26 25 26 28 28 34 37 42 47 50 53 60 68 74 74 73 74 72 68 63 58 56 57 61 59 57 53 57 58 58 67 67 75 72 66 61 54 51 50
38 33 31 32 32 29 29 30 33 38 41 45 48 51 57 64 73 79 78 79 77 73 71 69 67 63 62 65 60 60 66 66 63 62 69 74 77 78 72 63 62 57 53
42 39 38 38 35 31 33 35 39 41 44 48 51 57 65 75 79 79 78 77 76 75 75 74 73 69 66 66 64 61 61 62 64 61 67 76 80 84 76 71 62 64 61
Wind_Direction_500mb
159 146 152 159 105 62 146 32 24 30 39 61 100 124 96 68 69 61 61 64 68 76 72 76 77 79 79 75 70 71 67 66 59 55 48 48 50 48 46 44 42 46 89
130 139 142 141 147 107 121 9 19 38 44 45 55 90 120 106 67 72 72 73 67 67 87 72 78 75 79 74 71 70 64 64 54 50 46 37 39 40 37 36 39 39 52
110 104 101 127 132 192 325 351 25 54 49 46 52 62 69 94 112 69 83 73 91 79 84 81 91 87 85 83 75 67 63 59 47 38 38 29 35 28 27 28 35 38 48
84 88 99 115 130 77 32 29 34 47 44 49 52 53 55 64 65 48 57 53 78 103 88 84 75 72 81 82 84 64 48 34 26 24 28 28 29 22 22 23 29 35 45
93 91 98 101 120 44 33 37 47 43 45 47 49 51 49 49 53 51 51 47 47 88 88 79 79 66 58 89 90 30 15 20 22 20 34 30 18 8 10 15 20 27 37
99 95 90 97 95 73 62 52 59 64 57 48 46 46 45 46 47 46 47 46 45 47 40 307 277 271 306 312 255 275 309 348 354 1 359 9 358 343 343 340 356 11 29
108 100 101 92 91 90 80 72 77 71 50 45 44 36 33 33 35 38 41 47 49 47 38 15 319 256 232 248 259 262 276 291 320 326 339 350 0 354 356 355 346 352 15
116 110 107 96 84 81 64 63 69 74 65 72 61 41 24 21 35 42 47 46 37 34 30 25 12 337 264 238 248 262 269 269 282 303 310 319 330 340 342 350 349 357 9
151 142 138 124 135 127 111 73 57 75 79 63 49 30 25 36 43 47 31 24 21 19 17 11 5 360 335 257 239 250 265 266 272 279 291 293 300 318 328 338 346 343 341
180 166 173 184 178 177 147 108 84 77 48 357 6 15 0 348 333 357 3 7 12 5 1 357 349 335 321 298 264 247 252 269 270 274 280 281 276 306 309 317 336 334 314
191 177 185 201 205 247 227 233 271 261 316 322 340 337 345 344 341 334 310 314 313 329 327 338 343 337 323 314 298 278 263 261 266 271 274 274 271 287 290 295 299 314 302
168 163 178 202 214 228 255 227 237 292 307 316 328 325 325 321 321 318 321 302 300 303 297 302 308 319 320 321 309 300 288 271 265 269 275 274 269 273 277 278 283 281 294
171 170 175 194 209 233 239 248 263 273 285 293 297 299 299 296 292 291 290 283 286 294 295 292 288 289 298 305 305 302 295 289 282 269 278 275 274 260 261 271 279 279 285
173 164 162 179 211 237 248 254 64 36 50 43 36 13 347 336 324 308 305 303 304 299 293 288 286 283 282 281 284 287 287 286 284 280 279 275 273 262 256 256 267 268 276
181 157 154 148 147 134 136 113 95 70 39 25 8 1 356 351 341 336 324 316 310 303 296 292 284 285 284 283 278 273 270 275 278 278 277 274 270 263 262 257 255 265 272
179 160 142 137 122 113 108 99 76 48 31 18 9 4 359 354 347 341 334 328 321 313 307 303 301 297 292 287 281 276 274 272 268 267 271 271 267 264 259 262 259 261 261
172 165 151 153 135 123 88 66 59 55 39 19 15 12 6 359 353 346 340 334 330 324 318 311 304 298 295 291 289 284 277 273 269 265 264 265 264 260 259 257 257 259 259
182 167 162 151 131 104 71 63 59 45 24 16 14 10 4 359 353 349 346 341 337 332 324 317 313 307 304 301 296 288 285 280 275 270 265 259 259 257 254 254 255 254 257
190 181 177 165 148 103 67 65 50 25 14 9 7 3 0 357 351 346 342 340 335 332 329 325 321 316 311 306 299 294 292 290 285 280 274 267 263 259 256 252 250 251 251
200 199 202 189 186 141 15 358 354 354 354 356 357 357 354 351 350 345 339 334 331 328 325 321 318 314 312 309 305 301 296 292 290 290 287 280 269 262 259 256 253 251 249
215 219 214 219 245 288 330 336 324 327 338 341 345 348 347 345 342 341 339 333 330 327 324 321 316 313 310 310 307 302 297 300 299 292 282 275 272 267 260 258 256 251 249
239 238 234 238 259 285 303 318 325 332 334 336 338 342 341 339 339 339 336 331 327 324 322 319 316 312 309 309 310 311 312 299 310 245 225 265 264 266 262 268 263 258 252
232 240 246 250 261 281 298 309 318 326 326 327 331 334 334 335 335 332 329 325 324 322 320 317 314 309 305 303 301 298 306 281 292 288 287 283 277 272 273 273 272 265 261
233 239 246 251 263 276 285 297 306 316 318 321 324 327 328 329 328 325 322 320 319 318 317 315 312 307 301 297 294 287 280 278 286 292 287 284 285 285 283 280 277 269 265
233 239 248 253 260 269 278 288 298 306 309 313 315 318 321 322 322 320 317 316 316 315 313 311 308 303 297 293 289 286 281 278 275 276 284 285 283 282 281 279 279 276 268
237 242 247 254 260 260 274 282 291 297 302 306 310 313 317 318 319 317 313 312 312 311 309 306 302 299 295 290 286 283 279 280 280 277 278 282 283 284 283 276 271 271 272
Wind_Speed_850mb
2 10 9 6 1 4 6 9 13 12 13 14 10 11 13 14 12 16 17 18 16 18 21 20 19 20 19 20 20 21 23 25 29 32 33 31 32 33 33 31 29 26 13
6 10 10 7 3 2 6 14 14 14 15 14 15 11 9 9 12 8 10 15 17 15 16 18 18 16 16 16 16 18 20 21 23 28 32 30 27 31 34 33 32 31 22
14 11 10 8 5 1 9 11 12 13 16 19 17 12 11 9 8 9 5 5 9 13 13 11 13 12 11 13 12 12 16 16 18 21 26 25 26 30 32 31 31 29 32
18 15 12 8 8 4 9 8 9 13 16 18 19 16 14 13 9 8 7 8 5 7 8 8 9 8 9 8 8 7 9 13 14 16 19 19 22 25 27 28 28 28 26
23 18 13 9 8 6 11 10 10 11 13 16 17 18 17 15 15 14 13 11 10 4 3 3 3 4 5 4 2 3 6 9 12 14 17 16 18 19 22 21 23 23 21
24 22 18 15 11 7 7 7 9 8 11 12 13 14 15 15 15 15 15 16 15 9 3 1 1 1 2 0 3 5 6 5 9 12 8 16 19 18 21 19 16 18 16
22 19 16 14 12 13 12 13 13 11 9 9 10 11 11 12 14 15 15 15 16 15 11 6 4 5 7 6 9 10 10 9 9 12 13 16 17 20 21 22 12 12 11
16 16 13 12 13 12 12 15 16 15 17 17 15 16 13 10 12 13 13 12 13 13 12 11 10 7 7 11 13 12 16 16 15 14 16 17 17 20 23 25 14 11 5
18 15 12 9 9 8 6 7 8 12 12 14 13 13 15 14 7 8 9 9 10 11 12 9 8 8 5 7 14 18 19 23 23 21 19 18 18 21 22 20 14 11 6
17 14 15 10 6 6 5 2 2 3 2 5 10 12 10 8 6 6 9 9 10 10 10 11 12 10 8 8 11 18 25 26 28 28 26 21 20 19 20 15 15 11 10
16 16 17 14 8 4 6 5 5 4 5 8 11 14 13 14 10 8 11 13 16 14 14 14 15 16 14 13 14 17 20 25 31 31 32 29 27 23 21 15 15 16 12
22 17 15 13 11 9 12 8 5 7 13 14 12 15 17 15 17 15 14 18 20 23 21 21 20 20 19 19 19 19 19 23 27 29 27 30 35 30 24 26 25 17 18
17 14 11 9 9 10 5 8 9 10 11 11 10 9 8 16 18 19 20 19 22 26 26 29 32 29 28 29 28 27 25 24 24 27 31 33 30 34 28 30 28 27 23
15 13 13 10 9 9 7 3 2 4 7 7 9 9 9 11 13 15 16 19 19 24 26 33 33 34 36 38 40 40 37 32 31 31 32 34 33 30 33 33 34 28 27
11 14 12 11 10 11 9 9 9 9 9 15 15 16 17 18 18 18 18 20 23 25 28 29 34 36 36 36 38 42 46 46 42 41 39 38 38 40 38 35 38 39 33
12 12 12 12 13 13 11 10 8 10 13 16 20 24 26 26 25 25 25 25 25 27 29 32 35 35 35 38 39 41 43 47 49 49 49 48 46 44 45 42 43 42 44
14 12 14 12 13 9 7 8 10 13 16 20 25 28 29 29 29 31 33 33 33 33 34 34 33 34 38 39 41 41 43 46 49 52 53 58 56 52 51 50 49 48 50
14 15 16 13 10 8 9 9 10 12 16 24 30 33 34 35 36 36 36 35 36 37 38 39 41 43 42 42 44 43 44 45 47 50 54 61 61 60 57 55 54 53 53
15 14 14 12 8 6 7 8 9 14 21 28 34 37 38 39 40 41 42 42 42 43 43 45 44 46 49 49 50 52 51 51 52 52 51 55 60 66 67 62 59 56 54
20 17 14 12 7 1 5 8 12 18 23 29 36 41 42 44 46 46 46 48 49 49 50 51 52 50 50 53 57 60 61 60 59 55 51 46 49 55 64 72 68 66 61
26 22 17 12 8 6 9 13 15 20 26 30 37 45 46 49 51 55 56 54 55 56 57 58 60 61 60 57 63 67 69 67 54 43 42 44 42 39 44 51 58 70 65
25 22 21 17 13 12 14 19 22 27 31 35 40 48 50 53 58 64 67 63 62 63 62 61 60 61 60 54 55 58 43 59 41 16 12 24 36 37 38 36 39 47 62
32 28 23 20 20 18 21 24 25 31 33 36 42 48 51 56 62 68 70 68 68 68 67 64 60 57 60 57 49 37 24 20 51 67 50 56 61 61 58 52 48 46 43
33 29 27 26 26 25 26 28 28 34 37 42 47 50 53 60 68 74 74 73 74 72 68 63 58 56 57 61 59 57 53 57 58 58 67 67 75 72 66 61 54 51 50
38 33 31 32 32 29 29 30 33 38 41 45 48 51 57 64 73 79 78 79 77 73 71 69 67 63 62 65 60 60 66 66 63 62 69 74 77 78 72 63 62 57 53
42 39 38 38 35 31 33 35 39 41 44 48 51 57 65 75 79 79 78 77 76 75 75 74 73 69 66 66 64 61 61 62 64 61 67 76 80 84 76 71 62 64 61
Wind_Direction_850mb
159 146 152 159 105 62 146 32 24 30 39 61 100 124 96 68 69 61 61 64 68 76 72 76 77 79 79 75 70 71 67 66 59 55 48 48 50 48 46 44 42 46 89
130 139 142 141 147 107 121 9 19 38 44 45 55 90 120 106 67 72 72 73 67 67 87 72 78 75 79 74 71 70 64 64 54 50 46 37 39 40 37 36 39 39 52
110 104 101 127 132 192 325 351 25 54 49 46 52 62 69 94 112 69 83 73 91 79 84 81 91 87 85 83 75 67 63 59 47 38 38 29 35 28 27 28 35 38 48
84 88 99 115 130 77 32 29 34 47 44 49 52 53 55 64 65 48 57 53 78 103 88 84 75 72 81 82 84 64 48 34 26 24 28 28 29 22 22 23 29 35 45
93 91 98 101 120 44 33 37 47 43 45 47 49 51 49 49 53 51 51 47 47 88 88 79 79 66 58 89 90 30 15 20 22 20 34 30 18 8 10 15 20 27 37
99 95 90 97 95 73 62 52 59 64 57 48 46 46 45 46 47 46 47 46 45 47 40 307 277 271 306 312 255 275 309 348 354 1 359 9 358 343 343 340 356 11 29
108 100 101 92 91 90 80 72 77 71 50 45 44 36 33 33 35 38 41 47 49 47 38 15 319 256 232 248 259 262 276 291 320 326 339 350 0 354 356 355 346 352 15
116 110 107 96 84 81 64 63 69 74 65 72 61 41 24 21 35 42 47 46 37 34 30 25 12 337 264 238 248 262 269 269 282 303 310 319 330 340 342 350 349 357 9
151 142 138 124 135 127 111 73 57 75 79 63 49 30 25 36 43 47 31 24 21 19 17 11 5 360 335 257 239 250 265 266 272 279 291 293 300 318 328 338 346 343 341
180 166 173 184 178 177 147 108 84 77 48 357 6 15 0 348 333 357 3 7 12 5 1 357 349 335 321 298 264 247 252 269 270 274 280 281 276 306 309 317 336 334 314
191 177 185 201 205 247 227 233 271 261 316 322 340 337 345 344 341 334 310 314 313 329 327 338 343 337 323 314 298 278 263 261 266 271 274 274 271 287 290 295 299 314 302
168 163 178 202 214 228 255 227 237 292 307 316 328 325 325 321 321 318 321 302 300 303 297 302 308 319 320 321 309 300 288 271 265 269 275 274 269 273 277 278 283 281 294
171 170 175 194 209 233 239 248 263 273 285 293 297 299 299 296 292 291 290 283 286 294 295 292 288 289 298 305 305 302 295 289 282 269 278 275 274 260 261 271 279 279 285
173 164 162 179 211 237 248 254 64 36 50 43 36 13 347 336 324 308 305 303 304 299 293 288 286 283 282 281 284 287 287 286 284 280 279 275 273 262 256 256 267 268 276
181 157 154 148 147 134 136 113 95 70 39 25 8 1 356 351 341 336 324 316 310 303 296 292 284 285 284 283 278 273 270 275 278 278 277 274 270 263 262 257 255 265 272
179 160 142 137 122 113 108 99 76 48 31 18 9 4 359 354 347 341 334 328 321 313 307 303 301 297 292 287 281 276 274 272 268 267 271 271 267 264 259 262 259 261 261
172 165 151 153 135 123 88 66 59 55 39 19 15 12 6 359 353 346 340 334 330 324 318 311 304 298 295 291 289 284 277 273 269 265 264 265 264 260 259 257 257 259 259
182 167 162 151 131 104 71 63 59 45 24 16 14 10 4 359 353 349 346 341 337 332 324 317 313 307 304 301 296 288 285 280 275 270 265 259 259 257 254 254 255 254 257
190 181 177 165 148 103 67 65 50 25 14 9 7 3 0 357 351 346 342 340 335 332 329 325 321 316 311 306 299 294 292 290 285 280 274 267 263 259 256 252 250 251 251
200 199 202 189 186 141 15 358 354 354 354 356 357 357 354 351 350 345 339 334 331 328 325 321 318 314 312 309 305 301 296 292 290 290 287 280 269 262 259 256 253 251 249
215 219 214 219 245 288 330 336 324 327 338 341 345 348 347 345 342 341 339 333 330 327 324 321 316 313 310 310 307 302 297 300 299 292 282 275 272 267 260 258 256 251 249
239 238 234 238 259 285 303 318 325 332 334 336 338 342 341 339 339 339 336 331 327 324 322 319 316 312 309 309 310 311 312 299 310 245 225 265 264 266 262 268 263 258 252
232 240 246 250 261 281 298 309 318 326 326 327 331 334 334 335 335 332 329 325 324 322 320 317 314 309 305 303 301 298 306 281 292 288 287 283 277 272 273 273 272 265 261
233 239 246 251 263 276 285 297 306 316 318 321 324 327 328 329 328 325 322 320 319 318 317 315 312 307 301 297 294 287 280 278 286 292 287 284 285 285 283 280 277 269 265
233 239 248 253 260 269 278 288 298 306 309 313 315 318 321 322 322 320 317 316 316 315 313 311 308 303 297 293 289 286 281 278 275 276 284 285 283 282 281 279 279 276 268
237 242 247 254 260 260 274 282 291 297 302 306 310 313 317 318 319 317 313 312 312 311 309 306 302 299 295 290 286 283 279 280 280 277 278 282 283 284 283 276 271 271 272